Weather History for KTVL - January, 2012

Change the Weather History Date:

Thursday, January 12, 2012

  Actual Average Record
Temperature  
Mean Temperature 30 °F 30 °F  
Max Temperature 47 °F 43 °F 54 °F (1990)
Min Temperature 13 °F 16 °F -12 °F (2013)
Degree Days  
Heating Degree Days 35 35  
Month to date heating degree days 345 427  
Since 1 July heating degree days 3145 3610  
Cooling Degree Days 0 0  
Month to date cooling degree days 0 0  
Year to date cooling degree days 0 0  
Moisture  
Dew Point 14 °F    
Average Humidity 56    
Maximum Humidity 80    
Minimum Humidity 31    
Precipitation  
Precipitation 0.00 in - 3.49 in (1980)
Month to date precipitation 0.00  
Year to date precipitation 0.00  
Snow  
Snow 0.00 in - - ()
Month to date snowfall 0.0  
Snow Depth 0.00 in    
Sea Level Pressure  
Sea Level Pressure 30.26 in    
Wind  
Wind Speed 1 mph (SSW)    
Max Wind Speed 9 mph    
Max Gust Speed 28 mph    
Visibility 10 miles    
Events      
T = Trace of Precipitation, MM = Missing Value Source: NWS Daily Summary

Daily Weather History Graph

Daily Weather History Graph

Search for Another Location

Airport or City:

Trip Planner

Search our weather history database for the weather conditions in past years. The results will help you decide how hot, cold, wet, or windy it might be!

Date:

Astronomy

Jan. 12, 2012 Rise Set
Actual Time 7:18 AM PST 4:58 PM PST
Civil Twilight 6:48 AM PST 5:27 PM PST
Nautical Twilight 6:15 AM PST 6:00 PM PST
Astronomical Twilight 5:43 AM PST 6:33 PM PST
Moon 9:07 PM PST (1/12) 9:06 AM PST (1/12)
Length of Visible Light 10h 39m
Length of Day
9h 40m
Waning Gibbous, 86% of the Moon is Illuminated
Jan 12
Waning Gibbous
Jan 16
Last Quarter
Jan 22
New
Jan 30
First Quarter
Feb 7
Full

Hourly Weather History & Observations

Time (PST) Temp. Windchill Dew Point Humidity Pressure Visibility Wind Dir Wind Speed Gust Speed Precip Events Conditions
12:53 AM 19.0 °F - 10.0 °F 68% 30.19 in 10.0 mi Calm Calm - N/A   Clear
1:53 AM 18.0 °F - 10.0 °F 71% 30.18 in 8.0 mi Calm Calm - N/A   Clear
2:53 AM 17.1 °F - 10.0 °F 74% 30.18 in 10.0 mi Calm Calm - N/A   Clear
3:53 AM 15.1 °F 9.4 °F 8.1 °F 74% 30.22 in 9.0 mi SW 3.5 mph - N/A   Clear
4:53 AM 16.0 °F - 10.0 °F 77% 30.26 in 10.0 mi Calm Calm - N/A   Clear
5:53 AM 16.0 °F - 10.0 °F 77% 30.28 in 10.0 mi Calm Calm - N/A   Clear
6:53 AM 14.0 °F - 8.1 °F 77% 30.30 in 10.0 mi Calm Calm - N/A   Clear
7:53 AM 12.9 °F 5.2 °F 7.0 °F 77% 30.32 in 10.0 mi South 4.6 mph - N/A   Clear
8:53 AM 21.0 °F - 12.9 °F 71% 30.30 in 10.0 mi Calm Calm - N/A   Clear
9:53 AM 33.1 °F - 15.1 °F 48% 30.28 in 10.0 mi Calm Calm - N/A   Clear
10:53 AM 39.9 °F - 18.0 °F 41% 30.24 in 10.0 mi Calm Calm - N/A   Clear
11:53 AM 45.0 °F 42.6 °F 19.0 °F 36% 30.20 in 10.0 mi Variable 4.6 mph - N/A   Clear
12:53 PM 45.0 °F - 19.9 °F 37% 30.19 in 10.0 mi Calm Calm - N/A   Clear
1:53 PM 45.0 °F 42.6 °F 19.9 °F 37% 30.18 in 10.0 mi Variable 4.6 mph - N/A   Clear
2:53 PM 46.9 °F - 18.0 °F 32% 30.18 in 10.0 mi Calm Calm - N/A   Clear
3:53 PM 42.1 °F - 19.9 °F 41% 30.22 in 10.0 mi Calm Calm - N/A   Clear
4:53 PM 34.0 °F - 18.0 °F 52% 30.27 in 10.0 mi Calm Calm - N/A   Clear
5:53 PM 30.0 °F - 17.1 °F 59% 30.30 in 10.0 mi Calm Calm - N/A   Clear
6:53 PM 27.0 °F 23.0 °F 16.0 °F 63% 30.34 in 10.0 mi SSW 3.5 mph - N/A   Clear
7:53 PM 26.1 °F - 15.1 °F 63% 30.36 in 10.0 mi Calm Calm - N/A   Clear
8:53 PM 23.0 °F 18.4 °F 14.0 °F 68% 30.34 in 10.0 mi South 3.5 mph - N/A   Clear
9:53 PM 21.9 °F 17.2 °F 12.9 °F 68% 30.32 in 10.0 mi South 3.5 mph - N/A   Clear
10:53 PM 21.9 °F - 12.9 °F 68% 30.31 in 10.0 mi Calm Calm - N/A   Clear
11:53 PM 19.0 °F - 10.9 °F 71% 30.30 in 10.0 mi Calm Calm - N/A   Clear